Volver al catálogo

STARLINK-31120

ActivoComunicacionesVLEO
NORAD 58778·PAYLOAD·🇺🇸 United States

Lanzado Jan 14, 2024 desde Vandenberg Space Force Base

Loading…

Próximos Pases (próximas 24 horas)

TLE

ActualizadoSource: CelesTrak SupGP

Época: Sep 14, 2026, 21:12 UTC

1 58778C 24011P   26257.88381944  .00026732  00000+0  78954-3 0  2572
2 58778  53.1585 212.0515 0001478  93.5519  14.3885 15.34387732    15

Sigue STARLINK-31120 en tiempo real con AllMySat

Download on the App Store